Time,TemperatureF,DewpointF,PressureIn,WindDirection,WindDirectionDegrees,WindSpeedMPH,WindSpeedGustMPH,Humidity,HourlyPrecipIn,Conditions,Clouds,dailyrainin,SoftwareType,DateUTC
2013-03-12 00:03:00,36.4,32.0,29.73,WSW,249,10.0,-999.0,83,-99.99,,,0.00,weatherlink.com 1.10,2013-03-12 04:03:00,
2013-03-12 00:18:00,36.3,32.0,29.73,WSW,246,10.0,-999.0,83,-99.99,,,0.00,weatherlink.com 1.10,2013-03-12 04:18:00,
2013-03-12 00:33:00,36.0,31.0,29.73,WSW,237,9.0,-999.0,83,-99.99,,,0.00,weatherlink.com 1.10,2013-03-12 04:33:00,
2013-03-12 00:48:00,35.9,31.0,29.73,SW,221,8.0,-999.0,83,-99.99,,,0.00,weatherlink.com 1.10,2013-03-12 04:48:00,
2013-03-12 01:03:00,35.8,31.0,29.74,WSW,239,11.0,-999.0,83,-99.99,,,0.00,weatherlink.com 1.10,2013-03-12 05:03:00,
2013-03-12 01:18:00,35.7,31.0,29.74,WNW,292,11.0,-999.0,83,-99.99,,,0.00,weatherlink.com 1.10,2013-03-12 05:18:00,
2013-03-12 01:33:00,35.6,31.0,29.74,SW,232,8.0,-999.0,84,-99.99,,,0.00,weatherlink.com 1.10,2013-03-12 05:33:00,
2013-03-12 01:48:00,35.6,31.0,29.74,SW,220,10.0,-999.0,84,-99.99,,,0.00,weatherlink.com 1.10,2013-03-12 05:48:00,
2013-03-12 02:03:00,35.2,31.0,29.75,WNW,288,4.0,-999.0,84,-99.99,,,0.00,weatherlink.com 1.10,2013-03-12 06:03:00,
2013-03-12 02:18:00,34.8,30.0,29.75,West,264,4.0,-999.0,84,-99.99,,,0.00,weatherlink.com 1.10,2013-03-12 06:18:00,
2013-03-12 02:33:00,34.8,30.0,29.75,WSW,242,8.0,-999.0,84,-99.99,,,0.00,weatherlink.com 1.10,2013-03-12 06:33:00,
2013-03-12 02:48:00,34.4,30.0,29.76,West,271,9.0,-999.0,85,-99.99,,,0.00,weatherlink.com 1.10,2013-03-12 06:48:00,
2013-03-12 03:03:00,34.1,30.0,29.76,WSW,240,11.0,-999.0,85,-99.99,,,0.00,weatherlink.com 1.10,2013-03-12 07:03:00,
2013-03-12 03:18:00,34.1,30.0,29.76,SW,218,13.0,-999.0,86,-99.99,,,0.00,weatherlink.com 1.10,2013-03-12 07:18:00,
2013-03-12 03:33:00,34.1,30.0,29.76,West,260,7.0,-999.0,86,-99.99,,,0.00,weatherlink.com 1.10,2013-03-12 07:33:00,
2013-03-12 03:48:00,34.3,31.0,29.77,SW,232,11.0,-999.0,86,-99.99,,,0.00,weatherlink.com 1.10,2013-03-12 07:48:00,
2013-03-12 04:03:00,34.3,31.0,29.77,WSW,256,10.0,-999.0,86,-99.99,,,0.00,weatherlink.com 1.10,2013-03-12 08:03:00,
2013-03-12 04:18:00,34.2,31.0,29.77,West,263,9.0,-999.0,86,-99.99,,,0.00,weatherlink.com 1.10,2013-03-12 08:18:00,
2013-03-12 04:33:00,34.3,31.0,29.77,WSW,250,11.0,-999.0,86,-99.99,,,0.00,weatherlink.com 1.10,2013-03-12 08:33:00,
2013-03-12 04:48:00,34.1,30.0,29.77,West,259,11.0,-999.0,85,-99.99,,,0.00,weatherlink.com 1.10,2013-03-12 08:48:00,
2013-03-12 05:03:00,34.0,30.0,29.78,WSW,256,3.0,-999.0,85,-99.99,,,0.00,weatherlink.com 1.10,2013-03-12 09:03:00,
2013-03-12 05:18:00,33.8,30.0,29.78,West,259,3.0,-999.0,86,-99.99,,,0.00,weatherlink.com 1.10,2013-03-12 09:18:00,
2013-03-12 05:33:00,33.7,30.0,29.79,WSW,254,7.0,-999.0,86,-99.99,,,0.00,weatherlink.com 1.10,2013-03-12 09:33:00,
2013-03-12 05:48:00,33.8,30.0,29.79,WSW,256,7.0,-999.0,86,-99.99,,,0.00,weatherlink.com 1.10,2013-03-12 09:48:00,
2013-03-12 06:03:00,33.7,30.0,29.80,WSW,242,5.0,-999.0,86,-99.99,,,0.00,weatherlink.com 1.10,2013-03-12 10:03:00,
2013-03-12 06:18:00,33.7,30.0,29.80,West,263,6.0,-999.0,86,-99.99,,,0.00,weatherlink.com 1.10,2013-03-12 10:18:00,
2013-03-12 06:33:00,33.6,30.0,29.80,WSW,249,11.0,-999.0,86,-99.99,,,0.00,weatherlink.com 1.10,2013-03-12 10:33:00,
2013-03-12 06:48:00,33.6,30.0,29.80,WNW,284,6.0,-999.0,86,-99.99,,,0.00,weatherlink.com 1.10,2013-03-12 10:48:00,
2013-03-12 07:03:00,33.4,30.0,29.81,SW,233,2.0,-999.0,86,-99.99,,,0.00,weatherlink.com 1.10,2013-03-12 11:03:00,
2013-03-12 07:18:00,33.3,29.0,29.82,West,270,5.0,-999.0,85,-99.99,,,0.00,weatherlink.com 1.10,2013-03-12 11:18:00,
2013-03-12 07:33:00,33.3,30.0,29.82,SW,232,6.0,-999.0,86,-99.99,,,0.00,weatherlink.com 1.10,2013-03-12 11:33:00,
2013-03-12 07:48:00,33.3,30.0,29.82,West,263,6.0,-999.0,86,-99.99,,,0.00,weatherlink.com 1.10,2013-03-12 11:48:00,
2013-03-12 08:03:00,33.2,30.0,29.83,WSW,239,7.0,-999.0,86,-99.99,,,0.00,weatherlink.com 1.10,2013-03-12 12:03:00,
2013-03-12 08:18:00,33.2,30.0,29.83,West,259,6.0,-999.0,86,-99.99,,,0.00,weatherlink.com 1.10,2013-03-12 12:18:00,
2013-03-12 08:33:00,33.3,29.0,29.84,SW,215,7.0,-999.0,85,-99.99,,,0.00,weatherlink.com 1.10,2013-03-12 12:33:00,
2013-03-12 08:48:00,33.4,29.0,29.84,SW,215,6.0,-999.0,85,-99.99,,,0.00,weatherlink.com 1.10,2013-03-12 12:48:00,
2013-03-12 09:03:00,33.4,29.0,29.85,SW,221,4.0,-999.0,85,-99.99,,,0.00,weatherlink.com 1.10,2013-03-12 13:03:00,
2013-03-12 09:18:00,33.3,29.0,29.86,SW,232,3.0,-999.0,85,-99.99,,,0.00,weatherlink.com 1.10,2013-03-12 13:18:00,
2013-03-12 09:33:00,33.2,29.0,29.86,WSW,254,12.0,-999.0,85,-99.99,,,0.00,weatherlink.com 1.10,2013-03-12 13:33:00,
2013-03-12 09:48:00,32.8,29.0,29.86,WSW,243,3.0,-999.0,85,-99.99,,,0.00,weatherlink.com 1.10,2013-03-12 13:48:00,
2013-03-12 10:03:00,32.6,29.0,29.87,West,259,10.0,-999.0,85,-99.99,,,0.00,weatherlink.com 1.10,2013-03-12 14:03:00,
2013-03-12 10:18:00,32.8,29.0,29.88,WSW,240,6.0,-999.0,85,-99.99,,,0.00,weatherlink.com 1.10,2013-03-12 14:18:00,
2013-03-12 10:33:00,32.9,29.0,29.88,SW,227,5.0,-999.0,85,-99.99,,,0.00,weatherlink.com 1.10,2013-03-12 14:33:00,
2013-03-12 10:48:00,32.9,29.0,29.88,WSW,251,13.0,-999.0,85,-99.99,,,0.00,weatherlink.com 1.10,2013-03-12 14:48:00,
2013-03-12 11:03:00,33.0,29.0,29.88,SW,227,15.0,-999.0,85,-99.99,,,0.00,weatherlink.com 1.10,2013-03-12 15:03:00,
2013-03-12 11:18:00,33.0,29.0,29.88,WSW,247,7.0,-999.0,84,-99.99,,,0.00,weatherlink.com 1.10,2013-03-12 15:18:00,
2013-03-12 11:33:00,33.2,29.0,29.87,SW,232,4.0,-999.0,84,-99.99,,,0.00,weatherlink.com 1.10,2013-03-12 15:33:00,
2013-03-12 11:48:00,33.0,29.0,29.88,WSW,257,10.0,-999.0,84,-99.99,,,0.00,weatherlink.com 1.10,2013-03-12 15:48:00,
2013-03-12 12:03:00,32.8,29.0,29.89,West,276,4.0,-999.0,84,-99.99,,,0.00,weatherlink.com 1.10,2013-03-12 16:03:00,
2013-03-12 12:18:00,32.8,29.0,29.89,West,267,5.0,-999.0,84,-99.99,,,0.00,weatherlink.com 1.10,2013-03-12 16:18:00,
2013-03-12 12:33:00,33.0,29.0,29.89,WSW,246,5.0,-999.0,84,-99.99,,,0.00,weatherlink.com 1.10,2013-03-12 16:33:00,
2013-03-12 12:48:00,33.1,29.0,29.89,SW,232,8.0,-999.0,84,-99.99,,,0.00,weatherlink.com 1.10,2013-03-12 16:48:00,
2013-03-12 13:03:00,32.8,29.0,29.90,SSW,209,14.0,-999.0,84,-99.99,,,0.00,weatherlink.com 1.10,2013-03-12 17:03:00,
2013-03-12 13:18:00,33.1,29.0,29.90,WSW,246,6.0,-999.0,84,-99.99,,,0.00,weatherlink.com 1.10,2013-03-12 17:18:00,
2013-03-12 13:33:00,33.4,29.0,29.90,WNW,286,9.0,-999.0,84,-99.99,,,0.00,weatherlink.com 1.10,2013-03-12 17:33:00,
2013-03-12 13:48:00,33.2,29.0,29.89,WSW,241,14.0,-999.0,83,-99.99,,,0.00,weatherlink.com 1.10,2013-03-12 17:48:00,
2013-03-12 14:03:00,33.2,29.0,29.89,West,259,7.0,-999.0,83,-99.99,,,0.00,weatherlink.com 1.10,2013-03-12 18:03:00,
2013-03-12 14:18:00,33.4,29.0,29.89,SW,225,13.0,-999.0,83,-99.99,,,0.00,weatherlink.com 1.10,2013-03-12 18:18:00,
2013-03-12 14:33:00,33.9,29.0,29.89,West,273,10.0,-999.0,82,-99.99,,,0.00,weatherlink.com 1.10,2013-03-12 18:33:00,
2013-03-12 14:48:00,33.9,29.0,29.90,ENE,61,5.0,-999.0,82,-99.99,,,0.00,weatherlink.com 1.10,2013-03-12 18:48:00,
2013-03-12 15:03:00,34.2,29.0,29.89,SW,232,16.0,-999.0,81,-99.99,,,0.00,weatherlink.com 1.10,2013-03-12 19:03:00,
2013-03-12 15:18:00,34.7,29.0,29.88,SW,227,4.0,-999.0,81,-99.99,,,0.00,weatherlink.com 1.10,2013-03-12 19:18:00,
2013-03-12 15:33:00,35.0,29.0,29.88,WSW,246,6.0,-999.0,80,-99.99,,,0.00,weatherlink.com 1.10,2013-03-12 19:33:00,
2013-03-12 15:48:00,35.3,30.0,29.88,West,273,8.0,-999.0,80,-99.99,,,0.00,weatherlink.com 1.10,2013-03-12 19:48:00,
2013-03-12 16:03:00,35.3,30.0,29.89,SW,225,9.0,-999.0,80,-99.99,,,0.00,weatherlink.com 1.10,2013-03-12 20:03:00,
2013-03-12 16:18:00,35.0,29.0,29.89,SW,221,13.0,-999.0,80,-99.99,,,0.00,weatherlink.com 1.10,2013-03-12 20:18:00,
2013-03-12 16:33:00,35.6,30.0,29.89,SW,219,14.0,-999.0,80,-99.99,,,0.00,weatherlink.com 1.10,2013-03-12 20:33:00,
2013-03-12 16:48:00,36.1,31.0,29.89,WNW,291,14.0,-999.0,80,-99.99,,,0.00,weatherlink.com 1.10,2013-03-12 20:48:00,
2013-03-12 17:03:00,36.4,30.0,29.89,WSW,257,4.0,-999.0,79,-99.99,,,0.00,weatherlink.com 1.10,2013-03-12 21:03:00,
2013-03-12 17:18:00,36.8,31.0,29.89,WSW,252,5.0,-999.0,79,-99.99,,,0.00,weatherlink.com 1.10,2013-03-12 21:18:00,
2013-03-12 17:48:00,37.4,31.0,29.89,SSW,213,5.0,-999.0,78,-99.99,,,0.00,weatherlink.com 1.10,2013-03-12 21:48:00,
2013-03-12 18:03:00,37.5,31.0,29.89,WSW,240,5.0,-999.0,78,-99.99,,,0.00,weatherlink.com 1.10,2013-03-12 22:03:00,
2013-03-12 18:18:00,37.5,31.0,29.89,SW,235,6.0,-999.0,78,-99.99,,,0.00,weatherlink.com 1.10,2013-03-12 22:18:00,
2013-03-12 18:33:00,37.5,31.0,29.89,WNW,286,8.0,-999.0,77,-99.99,,,0.00,weatherlink.com 1.10,2013-03-12 22:33:00,
2013-03-12 18:48:00,37.4,31.0,29.90,West,271,13.0,-999.0,77,-99.99,,,0.00,weatherlink.com 1.10,2013-03-12 22:48:00,
2013-03-12 19:03:00,37.0,30.0,29.91,WNW,288,3.0,-999.0,77,-99.99,,,0.00,weatherlink.com 1.10,2013-03-12 23:03:00,
2013-03-12 19:19:00,36.7,30.0,29.91,West,269,9.0,-999.0,77,-99.99,,,0.00,weatherlink.com 1.10,2013-03-12 23:19:00,
2013-03-12 19:33:00,36.2,30.0,29.91,WSW,252,9.0,-999.0,77,-99.99,,,0.00,weatherlink.com 1.10,2013-03-12 23:33:00,
2013-03-12 19:48:00,35.6,29.0,29.92,West,273,3.0,-999.0,76,-99.99,,,0.00,weatherlink.com 1.10,2013-03-12 23:48:00,
2013-03-12 20:03:00,35.2,28.0,29.92,West,259,6.0,-999.0,76,-99.99,,,0.00,weatherlink.com 1.10,2013-03-13 00:03:00,
2013-03-12 20:18:00,34.8,28.0,29.92,West,262,3.0,-999.0,76,-99.99,,,0.00,weatherlink.com 1.10,2013-03-13 00:18:00,
2013-03-12 20:33:00,34.5,27.0,29.92,WSW,254,2.0,-999.0,75,-99.99,,,0.00,weatherlink.com 1.10,2013-03-13 00:33:00,
2013-03-12 20:50:00,34.1,27.0,29.92,SW,229,3.0,-999.0,75,-99.99,,,0.00,weatherlink.com 1.10,2013-03-13 00:50:00,
2013-03-12 21:03:00,33.5,27.0,29.92,SW,229,4.0,-999.0,76,-99.99,,,0.00,weatherlink.com 1.10,2013-03-13 01:03:00,
2013-03-12 21:18:00,32.6,26.0,29.92,SW,229,3.0,-999.0,76,-99.99,,,0.00,weatherlink.com 1.10,2013-03-13 01:18:00,
2013-03-12 21:33:00,32.3,26.0,29.92,SW,229,3.0,-999.0,77,-99.99,,,0.00,weatherlink.com 1.10,2013-03-13 01:33:00,
2013-03-12 21:48:00,32.3,26.0,29.92,SW,229,0.0,-999.0,78,-99.99,,,0.00,weatherlink.com 1.10,2013-03-13 01:48:00,
2013-03-12 22:03:00,32.2,26.0,29.92,SW,229,0.0,-999.0,78,-99.99,,,0.00,weatherlink.com 1.10,2013-03-13 02:03:00,
2013-03-12 22:18:00,32.6,27.0,29.92,SW,229,3.0,-999.0,79,-99.99,,,0.00,weatherlink.com 1.10,2013-03-13 02:18:00,
2013-03-12 22:33:00,33.7,28.0,29.93,SW,227,5.0,-999.0,79,-99.99,,,0.00,weatherlink.com 1.10,2013-03-13 02:33:00,
2013-03-12 22:48:00,33.8,28.0,29.93,SW,225,4.0,-999.0,80,-99.99,,,0.00,weatherlink.com 1.10,2013-03-13 02:48:00,
2013-03-12 23:03:00,33.9,28.0,29.93,SW,231,6.0,-999.0,80,-99.99,,,0.00,weatherlink.com 1.10,2013-03-13 03:03:00,
2013-03-12 23:18:00,33.8,28.0,29.92,SW,232,3.0,-999.0,80,-99.99,,,0.00,weatherlink.com 1.10,2013-03-13 03:18:00,
2013-03-12 23:33:00,33.7,28.0,29.92,SW,236,4.0,-999.0,80,-99.99,,,0.00,weatherlink.com 1.10,2013-03-13 03:33:00,
2013-03-12 23:48:00,33.5,28.0,29.93,WSW,244,4.0,-999.0,81,-99.99,,,0.00,weatherlink.com 1.10,2013-03-13 03:48:00,